Time,TemperatureF,DewpointF,PressureIn,WindDirection,WindDirectionDegrees,WindSpeedMPH,WindSpeedGustMPH,Humidity,HourlyPrecipIn,Conditions,Clouds,dailyrainin,SoftwareType,DateUTC
2013-06-10 00:03:00,68.0,65.0,29.85,ESE,107,5.0,10.0,89,0.00,,,0.01,,2013-06-10 04:03:00,
2013-06-10 00:13:00,68.0,65.0,29.85,ESE,107,5.0,10.0,89,0.00,,,0.01,,2013-06-10 04:13:00,
2013-06-10 00:23:00,68.0,65.0,29.85,ESE,111,5.0,10.0,89,0.00,,,0.01,,2013-06-10 04:23:00,
2013-06-10 00:33:00,68.0,65.0,29.85,East,96,6.0,11.0,89,0.00,,,0.01,,2013-06-10 04:33:00,
2013-06-10 00:42:00,68.0,65.0,29.85,East,96,6.0,11.0,89,0.00,,,0.01,,2013-06-10 04:42:00,
2013-06-10 00:53:00,68.0,65.0,29.85,East,96,6.0,11.0,89,0.00,,,0.01,,2013-06-10 04:53:00,
2013-06-10 01:02:00,68.0,65.0,29.85,ESE,123,8.0,14.0,90,0.01,,,0.02,,2013-06-10 05:02:00,
2013-06-10 01:12:00,68.0,65.0,29.85,ESE,123,8.0,14.0,90,0.01,,,0.02,,2013-06-10 05:12:00,
2013-06-10 01:22:00,68.0,65.0,29.85,SE,126,7.0,12.0,91,0.02,,,0.03,,2013-06-10 05:22:00,
2013-06-10 01:32:00,68.0,65.0,29.85,SE,126,7.0,12.0,91,0.02,,,0.03,,2013-06-10 05:32:00,
2013-06-10 01:42:00,68.0,65.0,29.85,SE,126,7.0,12.0,91,0.02,,,0.03,,2013-06-10 05:42:00,
2013-06-10 01:52:00,68.0,66.0,29.84,SE,136,10.0,12.0,92,0.06,,,0.07,,2013-06-10 05:52:00,
2013-06-10 02:02:00,68.0,66.0,29.83,SSE,148,4.0,8.0,93,0.07,,,0.09,,2013-06-10 06:02:00,
2013-06-10 02:12:00,68.0,66.0,29.83,SSE,148,4.0,8.0,93,0.07,,,0.09,,2013-06-10 06:12:00,
2013-06-10 02:22:00,67.0,65.0,29.83,SSE,147,0.0,6.0,93,0.10,,,0.13,,2013-06-10 06:22:00,
2013-06-10 02:32:00,67.0,65.0,29.83,SSE,147,3.0,6.0,93,0.12,,,0.16,,2013-06-10 06:32:00,
2013-06-10 02:42:00,67.0,65.0,29.83,SSE,147,3.0,6.0,93,0.12,,,0.16,,2013-06-10 06:42:00,
2013-06-10 02:53:00,67.0,65.0,29.82,SE,138,5.0,9.0,94,0.12,,,0.18,,2013-06-10 06:53:00,
2013-06-10 03:02:00,67.0,65.0,29.81,SE,129,6.0,12.0,94,0.20,,,0.29,,2013-06-10 07:02:00,
2013-06-10 03:12:00,67.0,65.0,29.81,SE,129,6.0,12.0,94,0.20,,,0.29,,2013-06-10 07:12:00,
2013-06-10 03:22:00,66.0,64.0,29.82,SSE,156,7.0,12.0,94,0.24,,,0.37,,2013-06-10 07:22:00,
2013-06-10 03:32:00,66.0,65.0,29.80,SSE,153,3.0,12.0,95,0.25,,,0.41,,2013-06-10 07:32:00,
2013-06-10 03:42:00,66.0,65.0,29.80,SSE,153,3.0,12.0,95,0.25,,,0.41,,2013-06-10 07:42:00,
2013-06-10 03:52:00,66.0,65.0,29.79,SSE,153,0.0,3.0,95,0.26,,,0.44,,2013-06-10 07:52:00,
2013-06-10 04:02:00,66.0,65.0,29.79,SSE,152,3.0,5.0,95,0.32,,,0.58,,2013-06-10 08:02:00,
2013-06-10 04:12:00,66.0,65.0,29.79,SSE,152,3.0,5.0,95,0.32,,,0.58,,2013-06-10 08:12:00,
2013-06-10 04:22:00,66.0,65.0,29.79,SSE,152,3.0,5.0,95,0.32,,,0.58,,2013-06-10 08:22:00,
2013-06-10 04:32:00,66.0,65.0,29.78,SSE,148,0.0,6.0,96,0.20,,,0.61,,2013-06-10 08:32:00,
2013-06-10 04:42:00,66.0,65.0,29.78,SSE,148,0.0,6.0,96,0.20,,,0.61,,2013-06-10 08:42:00,
2013-06-10 04:52:00,66.0,65.0,29.77,SE,127,6.0,10.0,96,0.17,,,0.61,,2013-06-10 08:52:00,
2013-06-10 05:02:00,66.0,65.0,29.77,SE,129,8.0,11.0,96,0.04,,,0.62,,2013-06-10 09:02:00,
2013-06-10 05:12:00,66.0,65.0,29.77,SE,129,8.0,11.0,96,0.04,,,0.62,,2013-06-10 09:12:00,
2013-06-10 05:22:00,66.0,65.0,29.77,SE,130,7.0,11.0,96,0.02,,,0.62,,2013-06-10 09:22:00,
2013-06-10 05:32:00,66.0,65.0,29.76,SE,130,7.0,11.0,96,0.01,,,0.62,,2013-06-10 09:32:00,
2013-06-10 05:42:00,66.0,65.0,29.76,SE,130,7.0,11.0,96,0.01,,,0.62,,2013-06-10 09:42:00,
2013-06-10 05:53:00,66.0,65.0,29.76,SE,133,10.0,12.0,96,0.01,,,0.62,,2013-06-10 09:53:00,
2013-06-10 06:03:00,66.0,65.0,29.75,SE,131,10.0,11.0,96,0.00,,,0.62,,2013-06-10 10:03:00,
2013-06-10 06:12:00,66.0,65.0,29.75,SE,131,10.0,11.0,96,0.00,,,0.62,,2013-06-10 10:12:00,
2013-06-10 06:23:00,66.0,65.0,29.75,SE,142,12.0,16.0,96,0.00,,,0.62,,2013-06-10 10:23:00,
2013-06-10 06:33:00,66.0,65.0,29.75,SSE,152,11.0,18.0,96,0.00,,,0.62,,2013-06-10 10:33:00,
2013-06-10 06:42:00,66.0,65.0,29.75,SSE,152,11.0,18.0,96,0.00,,,0.62,,2013-06-10 10:42:00,
2013-06-10 06:52:00,66.0,65.0,29.75,SSE,152,11.0,18.0,96,0.00,,,0.62,,2013-06-10 10:52:00,
2013-06-10 07:03:00,66.0,65.0,29.77,South,173,12.0,18.0,95,0.00,,,0.62,,2013-06-10 11:03:00,
2013-06-10 07:12:00,66.0,65.0,29.77,South,173,12.0,18.0,95,0.00,,,0.62,,2013-06-10 11:12:00,
2013-06-10 07:22:00,65.0,64.0,29.77,South,178,12.0,14.0,95,0.00,,,0.62,,2013-06-10 11:22:00,
2013-06-10 07:32:00,65.0,64.0,29.77,South,169,10.0,14.0,95,0.01,,,0.63,,2013-06-10 11:32:00,
2013-06-10 07:42:00,65.0,64.0,29.77,South,169,10.0,14.0,95,0.01,,,0.63,,2013-06-10 11:42:00,
2013-06-10 07:52:00,65.0,64.0,29.77,South,169,10.0,14.0,95,0.01,,,0.63,,2013-06-10 11:52:00,
2013-06-10 08:02:00,65.0,64.0,29.77,South,169,10.0,14.0,95,0.01,,,0.63,,2013-06-10 12:02:00,
2013-06-10 08:12:00,65.0,64.0,29.77,South,169,10.0,14.0,95,0.01,,,0.63,,2013-06-10 12:12:00,
2013-06-10 08:22:00,65.0,64.0,29.77,South,182,9.0,13.0,96,0.02,,,0.64,,2013-06-10 12:22:00,
2013-06-10 08:32:00,65.0,64.0,29.78,South,181,6.0,12.0,96,0.01,,,0.64,,2013-06-10 12:32:00,
2013-06-10 08:42:00,65.0,64.0,29.78,South,181,6.0,12.0,96,0.01,,,0.64,,2013-06-10 12:42:00,
2013-06-10 08:52:00,65.0,64.0,29.77,South,190,8.0,11.0,96,0.00,,,0.64,,2013-06-10 12:52:00,
2013-06-10 09:02:00,65.0,64.0,29.78,SSW,198,6.0,13.0,96,0.00,,,0.64,,2013-06-10 13:02:00,
2013-06-10 09:12:00,65.0,64.0,29.78,SSW,198,6.0,13.0,96,0.00,,,0.64,,2013-06-10 13:12:00,
2013-06-10 09:22:00,65.0,64.0,29.78,SW,215,7.0,11.0,96,0.00,,,0.64,,2013-06-10 13:22:00,
2013-06-10 09:32:00,66.0,65.0,29.78,SW,223,8.0,13.0,96,0.00,,,0.64,,2013-06-10 13:32:00,
2013-06-10 09:42:00,66.0,65.0,29.78,SW,223,8.0,13.0,96,0.00,,,0.64,,2013-06-10 13:42:00,
2013-06-10 09:52:00,66.0,65.0,29.78,SW,232,11.0,14.0,96,0.00,,,0.64,,2013-06-10 13:52:00,
2013-06-10 10:02:00,66.0,65.0,29.78,SW,230,7.0,14.0,96,0.00,,,0.64,,2013-06-10 14:02:00,
2013-06-10 10:12:00,66.0,65.0,29.78,SW,230,7.0,14.0,96,0.00,,,0.64,,2013-06-10 14:12:00,
2013-06-10 10:22:00,67.0,66.0,29.78,SW,232,11.0,14.0,95,0.00,,,0.64,,2013-06-10 14:22:00,
2013-06-10 10:32:00,67.0,65.0,29.77,SW,231,9.0,14.0,94,0.00,,,0.64,,2013-06-10 14:32:00,
2013-06-10 10:42:00,67.0,65.0,29.77,SW,231,9.0,14.0,94,0.00,,,0.64,,2013-06-10 14:42:00,
2013-06-10 10:52:00,67.0,65.0,29.78,WSW,237,15.0,16.0,93,0.00,,,0.64,,2013-06-10 14:52:00,
2013-06-10 11:02:00,68.0,66.0,29.78,WSW,241,7.0,18.0,92,0.00,,,0.64,,2013-06-10 15:02:00,
2013-06-10 11:12:00,68.0,66.0,29.78,WSW,241,7.0,18.0,92,0.00,,,0.64,,2013-06-10 15:12:00,
2013-06-10 11:22:00,69.0,66.0,29.77,SW,236,11.0,16.0,89,0.00,,,0.64,,2013-06-10 15:22:00,
2013-06-10 11:33:00,69.0,65.0,29.78,SW,231,12.0,16.0,87,0.00,,,0.64,,2013-06-10 15:33:00,
2013-06-10 11:43:00,69.0,65.0,29.78,SW,231,12.0,16.0,87,0.00,,,0.64,,2013-06-10 15:43:00,
2013-06-10 11:53:00,71.0,66.0,29.78,WSW,245,12.0,15.0,84,0.00,,,0.64,,2013-06-10 15:53:00,
2013-06-10 12:03:00,71.0,65.0,29.77,SW,223,11.0,19.0,82,0.00,,,0.64,,2013-06-10 16:03:00,
2013-06-10 12:13:00,71.0,65.0,29.77,SW,223,11.0,19.0,82,0.00,,,0.64,,2013-06-10 16:13:00,
2013-06-10 12:23:00,72.0,65.0,29.78,WSW,241,14.0,18.0,80,0.00,,,0.64,,2013-06-10 16:23:00,
2013-06-10 12:33:00,73.0,65.0,29.78,SW,234,15.0,20.0,76,0.00,,,0.64,,2013-06-10 16:33:00,
2013-06-10 12:43:00,73.0,65.0,29.78,WSW,242,16.0,20.0,76,0.00,,,0.64,,2013-06-10 16:43:00,
2013-06-10 12:53:00,73.0,65.0,29.78,WSW,242,16.0,20.0,76,0.00,,,0.64,,2013-06-10 16:53:00,
2013-06-10 13:03:00,73.0,65.0,29.78,SW,233,13.0,18.0,75,0.00,,,0.64,,2013-06-10 17:03:00,
2013-06-10 13:14:00,74.0,66.0,29.77,West,265,11.0,19.0,76,0.00,,,0.64,,2013-06-10 17:14:00,
2013-06-10 13:27:00,74.0,66.0,29.77,West,265,11.0,19.0,76,0.00,,,0.64,,2013-06-10 17:27:00,
2013-06-10 13:38:00,74.0,65.0,29.77,WSW,250,13.0,17.0,74,0.00,,,0.64,,2013-06-10 17:38:00,
2013-06-10 13:48:00,75.0,65.0,29.76,WSW,255,12.0,21.0,72,0.00,,,0.64,,2013-06-10 17:48:00,
2013-06-10 13:58:00,75.0,65.0,29.76,WSW,255,12.0,21.0,72,0.00,,,0.64,,2013-06-10 17:58:00,
2013-06-10 14:07:00,76.0,67.0,29.76,WSW,242,12.0,17.0,73,0.00,,,0.64,,2013-06-10 18:07:00,
2013-06-10 14:14:00,76.0,67.0,29.76,WSW,242,12.0,17.0,73,0.00,,,0.64,,2013-06-10 18:14:00,
2013-06-10 14:25:00,75.0,65.0,29.76,WSW,248,10.0,13.0,72,0.00,,,0.64,,2013-06-10 18:25:00,
2013-06-10 14:35:00,75.0,65.0,29.76,WSW,241,14.0,17.0,72,0.00,,,0.64,,2013-06-10 18:35:00,
2013-06-10 14:48:00,75.0,65.0,29.76,WSW,241,14.0,17.0,72,0.00,,,0.64,,2013-06-10 18:48:00,
2013-06-10 14:55:00,75.0,66.0,29.76,WSW,254,11.0,19.0,74,0.00,,,0.64,,2013-06-10 18:55:00,
2013-06-10 15:03:00,77.0,67.0,29.76,WSW,248,16.0,20.0,72,0.00,,,0.64,,2013-06-10 19:03:00,
2013-06-10 15:13:00,77.0,67.0,29.76,WSW,248,16.0,20.0,72,0.00,,,0.64,,2013-06-10 19:13:00,
2013-06-10 15:22:00,77.0,67.0,29.76,SW,236,13.0,20.0,71,0.00,,,0.64,,2013-06-10 19:22:00,
2013-06-10 15:33:00,77.0,67.0,29.76,SW,236,13.0,20.0,71,0.00,,,0.64,,2013-06-10 19:33:00,
2013-06-10 15:43:00,77.0,67.0,29.76,SW,236,13.0,20.0,71,0.00,,,0.64,,2013-06-10 19:43:00,
2013-06-10 15:53:00,76.0,66.0,29.75,WSW,238,9.0,19.0,71,0.00,,,0.64,,2013-06-10 19:53:00,
2013-06-10 16:03:00,76.0,66.0,29.75,West,280,13.0,19.0,71,0.00,,,0.64,,2013-06-10 20:03:00,
2013-06-10 16:13:00,76.0,66.0,29.75,West,280,13.0,19.0,71,0.00,,,0.64,,2013-06-10 20:13:00,
2013-06-10 16:23:00,76.0,66.0,29.75,West,280,13.0,19.0,71,0.00,,,0.64,,2013-06-10 20:23:00,
2013-06-10 16:32:00,77.0,66.0,29.75,WSW,249,12.0,19.0,69,0.00,,,0.64,,2013-06-10 20:32:00,
2013-06-10 16:43:00,77.0,66.0,29.75,WSW,249,12.0,19.0,69,0.00,,,0.64,,2013-06-10 20:43:00,
2013-06-10 16:53:00,77.0,66.0,29.75,WSW,249,12.0,19.0,69,0.00,,,0.64,,2013-06-10 20:53:00,
2013-06-10 17:02:00,77.0,65.0,29.75,WSW,241,14.0,18.0,67,0.00,,,0.64,,2013-06-10 21:02:00,
2013-06-10 17:12:00,77.0,65.0,29.75,WSW,241,14.0,18.0,67,0.00,,,0.64,,2013-06-10 21:12:00,
2013-06-10 17:23:00,76.0,65.0,29.75,West,259,11.0,15.0,70,0.00,,,0.64,,2013-06-10 21:23:00,
2013-06-10 17:33:00,77.0,66.0,29.75,WSW,256,14.0,17.0,68,0.00,,,0.64,,2013-06-10 21:33:00,
2013-06-10 17:43:00,77.0,66.0,29.75,WSW,256,14.0,17.0,68,0.00,,,0.64,,2013-06-10 21:43:00,
2013-06-10 17:53:00,77.0,66.0,29.75,WSW,256,14.0,17.0,68,0.00,,,0.64,,2013-06-10 21:53:00,
2013-06-10 18:03:00,75.0,65.0,29.75,West,263,7.0,17.0,72,0.00,,,0.64,,2013-06-10 22:03:00,
2013-06-10 18:13:00,75.0,65.0,29.75,West,263,7.0,17.0,72,0.00,,,0.64,,2013-06-10 22:13:00,
2013-06-10 18:23:00,76.0,67.0,29.75,West,261,13.0,15.0,73,0.00,,,0.64,,2013-06-10 22:23:00,
2013-06-10 18:33:00,76.0,66.0,29.76,WSW,256,10.0,16.0,71,0.00,,,0.64,,2013-06-10 22:33:00,
2013-06-10 18:42:00,75.0,65.0,29.76,West,279,12.0,16.0,70,0.00,,,0.64,,2013-06-10 22:42:00,
2013-06-10 18:52:00,75.0,65.0,29.76,West,279,12.0,16.0,70,0.00,,,0.64,,2013-06-10 22:52:00,
2013-06-10 19:03:00,75.0,66.0,29.76,WNW,287,5.0,8.0,73,0.00,,,0.64,,2013-06-10 23:03:00,
2013-06-10 19:12:00,75.0,66.0,29.76,WNW,287,5.0,8.0,73,0.00,,,0.64,,2013-06-10 23:12:00,
2013-06-10 19:22:00,74.0,65.0,29.77,WNW,289,9.0,19.0,74,0.00,,,0.64,,2013-06-10 23:22:00,
2013-06-10 19:32:00,73.0,65.0,29.77,WNW,297,9.0,12.0,75,0.00,,,0.64,,2013-06-10 23:32:00,
2013-06-10 19:42:00,73.0,65.0,29.77,WNW,297,9.0,12.0,75,0.00,,,0.64,,2013-06-10 23:42:00,
2013-06-10 19:52:00,73.0,65.0,29.77,WNW,282,9.0,14.0,75,0.00,,,0.64,,2013-06-10 23:52:00,
2013-06-10 20:02:00,72.0,64.0,29.77,WNW,284,8.0,14.0,76,0.00,,,0.64,,2013-06-11 00:02:00,
2013-06-10 20:12:00,72.0,64.0,29.77,WNW,284,8.0,14.0,76,0.00,,,0.64,,2013-06-11 00:12:00,
2013-06-10 20:22:00,72.0,64.0,29.77,WNW,284,8.0,14.0,76,0.00,,,0.64,,2013-06-11 00:22:00,
2013-06-10 20:32:00,72.0,64.0,29.77,WNW,284,8.0,14.0,76,0.00,,,0.64,,2013-06-11 00:32:00,
2013-06-10 20:42:00,72.0,64.0,29.77,WNW,284,8.0,14.0,76,0.00,,,0.64,,2013-06-11 00:42:00,
2013-06-10 21:02:00,71.0,65.0,29.77,West,263,6.0,9.0,81,0.00,,,0.64,,2013-06-11 01:02:00,
2013-06-10 21:12:00,71.0,65.0,29.77,West,263,6.0,9.0,81,0.00,,,0.64,,2013-06-11 01:12:00,
2013-06-10 21:22:00,71.0,65.0,29.77,West,263,6.0,9.0,81,0.00,,,0.64,,2013-06-11 01:22:00,
2013-06-10 21:33:00,70.0,64.0,29.78,WSW,257,6.0,10.0,82,0.00,,,0.64,,2013-06-11 01:33:00,
2013-06-10 21:42:00,70.0,64.0,29.78,WSW,257,6.0,10.0,82,0.00,,,0.64,,2013-06-11 01:42:00,
2013-06-10 21:53:00,70.0,65.0,29.78,West,260,7.0,10.0,84,0.00,,,0.64,,2013-06-11 01:53:00,
2013-06-10 22:03:00,69.0,64.0,29.79,West,260,5.0,8.0,85,0.00,,,0.64,,2013-06-11 02:03:00,
2013-06-10 22:12:00,69.0,64.0,29.79,West,260,5.0,8.0,85,0.00,,,0.64,,2013-06-11 02:12:00,
2013-06-10 22:22:00,68.0,64.0,29.79,West,260,5.0,6.0,87,0.00,,,0.64,,2013-06-11 02:22:00,
2013-06-10 22:32:00,68.0,64.0,29.80,West,260,6.0,9.0,88,0.00,,,0.64,,2013-06-11 02:32:00,
2013-06-10 22:42:00,68.0,65.0,29.80,West,268,7.0,9.0,89,0.00,,,0.64,,2013-06-11 02:42:00,
2013-06-10 22:52:00,68.0,65.0,29.80,West,268,7.0,9.0,89,0.00,,,0.64,,2013-06-11 02:52:00,
2013-06-10 23:03:00,68.0,65.0,29.80,West,268,7.0,9.0,89,0.00,,,0.64,,2013-06-11 03:03:00,
2013-06-10 23:13:00,67.0,64.0,29.82,West,281,6.0,11.0,90,0.00,,,0.63,,2013-06-11 03:13:00,
2013-06-10 23:22:00,67.0,64.0,29.82,West,281,6.0,11.0,90,0.00,,,0.63,,2013-06-11 03:22:00,
2013-06-10 23:32:00,67.0,64.0,29.82,West,281,6.0,11.0,90,0.00,,,0.63,,2013-06-11 03:32:00,
2013-06-10 23:43:00,67.0,64.0,29.83,WNW,284,6.0,9.0,90,0.00,,,0.63,,2013-06-11 03:43:00,
2013-06-10 23:53:00,67.0,64.0,29.83,WNW,284,6.0,9.0,90,0.00,,,0.63,,2013-06-11 03:53:00,